Richmond (Nsw), New South Wales

11:02 PM AEST on September 26, 2016 (GMT +1000)
Richmond (Military)

Weather History for YSRI - December, 2013

Change the Weather History Date:

Friday, December 20, 2013

  Actual Average (YSSY) Record (YSSY)
Temperature  
Mean Temperature 82 °F -  
Max Temperature 102 °F 78 °F 99 °F (2013)
Min Temperature 62 °F 64 °F 57 °F (2010)
Cooling Degree Days 17    
Growing Degree Days 32 (Base 50)    
Moisture  
Dew Point 58 °F    
Average Humidity 54    
Maximum Humidity 100    
Minimum Humidity 14    
Precipitation  
Precipitation 0.00 in - - ()
Sea Level Pressure  
Sea Level Pressure 29.92 in    
Wind  
Wind Speed 2 mph ()    
Max Wind Speed 14 mph    
Max Gust Speed -    
Visibility 6.2 miles    
Events      
Averages and records for this station are not official NWS values.
T = Trace of Precipitation, MM = Missing Value Source: Averaged Metar Reports

Daily Weather History Graph

Daily Weather History Graph

Search for Another Location

Airport or City:

Trip Planner

Search our weather history database for the weather conditions in past years. The results will help you decide how hot, cold, wet, or windy it might be!

Date:

Astronomy

Dec. 20, 2013 Rise Set
Actual Time 5:42 AM AEDT 8:06 PM AEDT
Civil Twilight 5:13 AM AEDT 8:35 PM AEDT
Nautical Twilight 4:38 AM AEDT 9:10 PM AEDT
Astronomical Twilight 3:59 AM AEDT 9:49 PM AEDT
Moon 9:53 PM AEDT (12/20) 8:01 AM AEDT (12/20)
Length of Visible Light 15h 21m
Length of Day
14h 23m
Waning Gibbous, 94% of the Moon is Illuminated
Dec 20
Waning Gibbous
Dec 26
Last Quarter
Jan 1
New
Jan 8
First Quarter
Jan 16
Full

Hourly Weather History & Observations

Time (AEDT) Temp. Heat Index Dew Point Humidity Pressure Visibility Wind Dir Wind Speed Gust Speed Precip Events Conditions
12:00 AM 66.2 °F - 60.8 °F 83% 30.04 in 6.2 mi Calm Calm - N/A   Unknown
12:30 AM 66.2 °F - 62.6 °F 88% 30.01 in 6.2 mi Calm Calm - N/A   Unknown
1:00 AM 66.2 °F - 64.4 °F 94% 30.01 in 6.2 mi Calm Calm - N/A   Unknown
1:30 AM 66.2 °F - 62.6 °F 88% 30.01 in 6.2 mi Calm Calm - N/A   Unknown
2:00 AM 64.4 °F - 62.6 °F 94% 30.01 in 6.2 mi Calm Calm - N/A   Unknown
2:30 AM 64.4 °F - 62.6 °F 94% 30.01 in 6.2 mi Calm Calm - N/A   Unknown
3:00 AM 64.4 °F - 62.6 °F 94% 29.98 in 6.2 mi Calm Calm - N/A   Unknown
3:30 AM 62.6 °F - 62.6 °F 100% 29.98 in 6.2 mi SSW 3.5 mph - N/A   Unknown
4:00 AM 62.6 °F - 62.6 °F 100% 29.98 in 6.2 mi Calm Calm - N/A   Unknown
4:30 AM 62.6 °F - 62.6 °F 100% 29.98 in 6.2 mi Calm Calm - N/A   Unknown
5:00 AM 62.6 °F - 62.6 °F 100% 29.98 in 6.2 mi Calm Calm - N/A   Unknown
5:30 AM 62.6 °F - 62.6 °F 100% 29.98 in 6.2 mi Calm Calm - N/A   Unknown
6:00 AM 62.6 °F - 62.6 °F 100% 30.01 in 6.2 mi Calm Calm - N/A   Unknown
6:30 AM 64.4 °F - 64.4 °F 100% 0.00 in 6.2 mi Calm Calm - N/A   Unknown
7:00 AM 66.2 °F - 64.4 °F 94% 30.01 in 6.2 mi Calm Calm - N/A   Unknown
7:30 AM 68.0 °F - 66.2 °F 94% 30.01 in 6.2 mi ESE 2.3 mph - N/A   Unknown
8:00 AM 69.8 °F - 64.4 °F 83% 30.01 in 6.2 mi South 5.8 mph - N/A   Unknown
8:30 AM 73.4 °F - 64.4 °F 73% 30.01 in 6.2 mi Calm Calm - N/A   Unknown
9:00 AM 75.2 °F - 64.4 °F 69% 30.01 in 6.2 mi Calm Calm - N/A   Unknown
9:30 AM 77.0 °F - 62.6 °F 61% 30.01 in 6.2 mi North 1.2 mph - N/A   Unknown
10:00 AM 78.8 °F - 62.6 °F 57% 30.01 in 6.2 mi North 3.5 mph - N/A   Unknown
10:30 AM 82.4 °F 84.6 °F 66.2 °F 58% 29.98 in 6.2 mi North 6.9 mph - N/A   Unknown
11:00 AM 87.8 °F 89.4 °F 64.4 °F 46% 29.98 in 6.2 mi NNE 5.8 mph - N/A   Unknown
11:30 AM 91.4 °F 92.1 °F 62.6 °F 38% 29.95 in 6.2 mi North 6.9 mph - N/A   Unknown
12:00 PM 91.4 °F 89.4 °F 55.4 °F 29% 29.92 in 6.2 mi ENE 8.1 mph - N/A   Unknown
12:30 PM 96.8 °F 95.1 °F 55.4 °F 25% 29.92 in 6.2 mi NE 6.9 mph - N/A   Unknown
1:00 PM 96.8 °F - 50.0 °F 20% 29.89 in 6.2 mi North 2.3 mph - N/A   Unknown
1:30 PM 102.2 °F - 50.0 °F 17% 29.89 in 6.2 mi ENE 4.6 mph - N/A   Unknown
2:00 PM 102.2 °F - 48.2 °F 16% 29.86 in 6.2 mi NNE 6.9 mph - N/A   Unknown
2:30 PM 100.4 °F - 46.4 °F 16% 29.83 in 6.2 mi ESE 5.8 mph - N/A   Unknown
3:00 PM 102.2 °F - 46.4 °F 15% 29.83 in 6.2 mi East 8.1 mph - N/A   Unknown
3:30 PM 102.2 °F - 48.2 °F 16% 29.83 in 6.2 mi ENE 4.6 mph - N/A   Unknown
4:00 PM 102.2 °F - 44.6 °F 14% 29.80 in 6.2 mi ESE 1.2 mph - N/A   Unknown
4:30 PM 98.6 °F - 48.2 °F 18% 29.80 in 6.2 mi NNE 8.1 mph - N/A   Unknown
5:00 PM 100.4 °F - 48.2 °F 17% 29.80 in 6.2 mi NNE 1.2 mph - N/A   Unknown
5:30 PM 98.6 °F 96.4 °F 53.6 °F 22% 29.80 in 6.2 mi NE 5.8 mph - N/A   Unknown
6:00 PM 98.6 °F 97.6 °F 57.2 °F 25% 29.80 in 6.2 mi ENE 9.2 mph - N/A   Unknown
6:30 PM 95.0 °F 93.7 °F 57.2 °F 28% 29.80 in 6.2 mi ENE 9.2 mph - N/A   Unknown
7:00 PM 91.4 °F 89.9 °F 57.2 °F 31% 0.00 in - NE 6.9 mph - N/A   Unknown
7:30 PM 91.4 °F 89.1 °F 53.6 °F 28% 0.00 in - NNW 4.6 mph - N/A   Unknown
8:00 PM 87.8 °F - 51.8 °F 29% 29.83 in 6.2 mi NNW 6.9 mph - N/A   Unknown
8:30 PM 87.8 °F - 51.8 °F 29% 29.83 in 6.2 mi North 6.9 mph - N/A   Scattered Clouds
9:00 PM 86.0 °F - 51.8 °F 31% 29.83 in 6.2 mi NNW 4.6 mph - N/A   Unknown
9:30 PM 86.0 °F - 51.8 °F 31% 29.83 in 6.2 mi North 4.6 mph - N/A   Scattered Clouds
10:00 PM 89.6 °F - 51.8 °F 27% 29.86 in 6.2 mi SE 13.8 mph - N/A   Unknown
10:30 PM 87.8 °F - 51.8 °F 29% 29.86 in 6.2 mi NE 6.9 mph - N/A   Unknown
11:00 PM 86.0 °F 84.5 °F 55.4 °F 35% 29.86 in 6.2 mi NNE 9.2 mph - N/A   Unknown
11:30 PM 82.4 °F 81.7 °F 55.4 °F 39% 29.89 in 6.2 mi NW 8.1 mph - N/A   Unknown